Regional Weather Roundup
Issued by NWS

Home | Current Version | Previous Version | Graphics & Text | Print | Product List | Glossary On
Versions: 1 2 3 4 5 6 7 8 9 10 11 12 13 14 15 16 17 18 19 20 21 22 23 24 25 26 27 28 29 30 31 32 33 34 35 36 37 38 39 40 41 42 43 44 45 46 47 48 49 50
107
ASUS45 KTFX 280510
RWRMT
MONTANA REGIONAL WEATHER ROUNDUP
NATIONAL WEATHER SERVICE GREAT FALLS MT
1100 PM MDT SAT AUG 27 2016

NOTE: "FAIR" INDICATES FEW OR NO CLOUDS BELOW 12000 FEET WITH NO
SIGNIFICANT WEATHER AND/OR OBSTRUCTIONS TO VISIBILITY.

MTZ001>007-043-280600-
WEST OF THE DIVIDE

CITY           SKY/WX    TMP DP  RH WIND       PRES   REMARKS
KALISPELL      CLOUDY    71  43  36 VRB6      29.77R
MISSOULA       PTCLDY    72  40  31 W8        29.86R
BUTTE          CLEAR     60  31  33 SE5       29.99R
MULLAN PASS    MOCLDY    58  37  45 W7        29.98R
EUREKA           N/A     70  41  35 SE5       29.75R
HAMILTON         N/A     66  39  37 SE6       29.88R
LIBBY            N/A     73  43  33 S5        29.77R
PLAINS           N/A     74  43  32 CALM      29.82R
RONAN            N/A     73  40  30 S1        29.89R
$$

MTZ008-052>055-280600-
SOUTHWEST MONTANA

CITY           SKY/WX    TMP DP  RH WIND       PRES   REMARKS
BOZEMAN        CLEAR     58  38  47 E5        29.91R
DILLON         CLEAR     63  29  27 S12       29.95R
W YELLOWSTONE  CLEAR     55  27  33 CALM      30.13S
ENNIS          CLEAR     66  25  20 S10G16    30.03R
THREE FORKS      N/A     69  69 100 CALM      29.90R
TWIN BRIDGES     N/A     62  32  32 MISG      29.94R
$$

MTZ009-010-012-014-046-048-049-054-280600-
EAST SLOPES AND CENTRAL MONTANA

CITY           SKY/WX    TMP DP  RH WIND       PRES   REMARKS
CUT BANK       CLOUDY    70  41  34 W18G25    29.79R
GREAT FALLS    CLOUDY    66  36  32 SW9       29.80R
MALMSTROM AFB  CLOUDY    67  41  38 MISG      29.80R
HELENA         CLOUDY    74  36  25 SW8       29.86R
CHOTEAU          N/A     70  37  30 SW6       29.82S
CONRAD           N/A     62  42  47 CALM      29.84R
$$

MTZ011-013-016-021-045-047-050-051-280600-
NORTH CENTRAL MONTANA

CITY           SKY/WX    TMP DP  RH WIND       PRES   REMARKS
HAVRE          CLOUDY    75  40  28 VRB5      29.71F
LEWISTOWN      CLOUDY    62  44  51 E6        29.86R
N BAR RANCH      N/A     61  37  41 NW6       29.91S
CHINOOK          N/A     66  46  48 N3        29.72R
$$

MTZ017>020-022>027-061-062-280600-
NORTHEAST MONTANA

CITY           SKY/WX    TMP DP  RH WIND       PRES   REMARKS
GLASGOW        CLOUDY    66  41  40 SE8       29.73S
JORDAN           N/A     68  38  33 CALM      29.77F
SIDNEY         PTCLDY    64  51  62 SE3       29.80S
WOLF POINT     PTCLDY    63  43  48 E5        29.76S
POPLAR           N/A     68  43  40 SE5       29.77S
$$

MTZ028>42-056>058-280600-
SOUTHCENTRAL AND SOUTHEAST MONTANA

CITY           SKY/WX    TMP DP  RH WIND       PRES   REMARKS
BAKER          CLEAR     65  49  56 S13       29.88S
BILLINGS       MOCLDY    73  36  25 S6        29.85S
LIVINGSTON     CLOUDY    74  28  18 SW20G29   29.90R
MILES CITY     CLEAR     68  36  30 S8        29.82R
EKALAKA          N/A     64  50  60 SE5       29.90S
FORSYTH          N/A     72  36  26 SE6       29.80S
LAUREL           N/A     66  35  31 CALM      29.86R
ROUNDUP          N/A     71  34  25 S6        29.77S
$$

REGIONAL REPORTS...DAKOTAS

CITY           SKY/WX    TMP DP  RH WIND       PRES   REMARKS
WILLISTON      CLOUDY    70  46  42 SE6       29.81S
MINOT          CLEAR     60  48  64 SE6       29.88S
DICKINSON      CLEAR     61  47  59 S13       29.87S
CROSBY           N/A     64  45  48 SE14      29.83F
WATFORD CITY     N/A     63  45  51 SE10      29.84S
BISMARCK       CLEAR     61  52  72 E8        29.92S
GRAND FORKS    CLEAR     57  54  89 S7        29.96R
FARGO          PTCLDY    64  59  83 SE8       29.98S
BUFFALO SD       N/A     66  53  63 SE10      29.85S
RAPID CITY     CLOUDY    64  51  62 S5        29.93S
$$

REGIONAL REPORTS...WYOMING/IDAHO/WASHINGTON

CITY           SKY/WX    TMP DP  RH WIND       PRES   REMARKS
GILLETTE       CLOUDY    53  40  61 S5        29.96S
SHERIDAN       CLEAR     53  43  68 SW3       29.91S
BUFFALO WY     CLEAR     65  31  28 SW6       30.00S
CODY           CLOUDY    66  27  22 CALM      29.99F
YELLOWSTONE LA   N/A     43  30  60 NW3       30.24S
IDAHO FALLS    CLEAR     66  30  26 SW7       30.01R
SALMON         PTCLDY    70  34  26 CALM      29.90R
BOISE          CLEAR     75  27  17 SE10      29.87R
SPOKANE        PTCLDY    70  40  33 SW15      29.80R
$$

REGIONAL REPORTS...ALBERTA

CITY           SKY/WX    TMP DP  RH WIND       PRES   REMARKS
EDMONTON       LGT RAIN  57  52  82 W16G24    29.70R
CALGARY        MOCLDY    54  50  87 E3        29.75R
LETHBRIDGE     CLEAR     57  48  72 N7        29.76R
MEDICINE HAT   CLOUDY    64  55  72 NW14G20   29.68R
$$

REGIONAL REPORTS...SASKATCHEWAN

CITY           SKY/WX    TMP DP  RH WIND       PRES   REMARKS
SWIFT CURRENT  CLOUDY    64  50  59 S10       29.67R
REGINA         MOCLDY    63  45  51 SE16G22   29.75R
SASKATOON      LGT RAIN  64  55  72 SE14      29.63F
$$




USA.gov is the U.S. government's official web portal to all federal, state and local government web resources and services.